Change the Weather History Date:

Monday, June 17, 2013

  Actual Average Record
Temperature  
Mean Temperature 72 °F -  
Max Temperature 84 °F 84 °F 102 °F (1998)
Min Temperature 60 °F 58 °F 42 °F (1999)
Cooling Degree Days 7    
Growing Degree Days 22 (Base 50)    
Moisture  
Dew Point 61 °F    
Average Humidity 70    
Maximum Humidity 100    
Minimum Humidity 40    
Precipitation  
Precipitation 0.06 in - - ()
Sea Level Pressure  
Sea Level Pressure 30.03 in    
Wind  
Wind Speed 13 mph (NE)    
Max Wind Speed 28 mph    
Max Gust Speed 33 mph    
Visibility 10 miles    
Events      
Averages and records for this station are not official NWS values.
T = Trace of Precipitation, MM = Missing Value Source: NWS Daily Summary

Daily Weather History Graph

Daily Weather History Graph

Search for Another Location

Airport or City:

Trip Planner

Search our weather history database for the weather conditions in past years. The results will help you decide how hot, cold, wet, or windy it might be!

Date:

Astronomy

Jun. 17, 2013 Rise Set
Actual Time 6:11 AM CDT 9:04 PM CDT
Civil Twilight 5:39 AM CDT 9:36 PM CDT
Nautical Twilight 4:59 AM CDT 10:17 PM CDT
Astronomical Twilight 4:12 AM CDT 11:03 PM CDT
Moon 2:48 PM CDT (6/17) 1:44 AM CDT (6/17)
Length of Visible Light 15h 57m
Length of Day
14h 53m
First Quarter, 60% of the Moon is Illuminated
Jun 17
First Quarter
Jun 23
Full
Jun 29
Last Quarter
Jul 8
New
Jul 15
First Quarter

Hourly Weather History & Observations

Time (CDT) Temp. Heat Index Dew Point Humidity Pressure Visibility Wind Dir Wind Speed Gust Speed Precip Events Conditions
12:15 AM 62.6 °F - 62.6 °F 100% 30.02 in 10.0 mi ENE 24.2 mph 32.2 mph 0.03 in   Overcast
12:35 AM 62.6 °F - 62.6 °F 100% 30.04 in 10.0 mi East 20.7 mph 27.6 mph 0.05 in   Overcast
12:55 AM 62.6 °F - 62.6 °F 100% 30.01 in 10.0 mi East 19.6 mph 28.8 mph 0.06 in   Mostly Cloudy
1:15 AM 62.6 °F - 60.8 °F 94% 29.97 in 10.0 mi East 27.6 mph 32.2 mph N/A   Clear
1:35 AM 62.6 °F - 60.8 °F 94% 29.93 in 10.0 mi East 23.0 mph 33.4 mph N/A   Clear
1:55 AM 64.4 °F - 59.0 °F 83% 29.91 in 10.0 mi East 23.0 mph 29.9 mph N/A   Clear
2:15 AM 64.4 °F - 59.0 °F 83% 29.91 in 10.0 mi East 16.1 mph - N/A   Clear
2:35 AM 64.4 °F - 59.0 °F 83% 29.91 in 10.0 mi ENE 9.2 mph - N/A   Clear
2:55 AM 64.4 °F - 60.8 °F 88% 29.91 in 10.0 mi NNE 5.8 mph - N/A   Clear
3:15 AM 62.6 °F - 60.8 °F 94% 29.91 in 10.0 mi NNE 6.9 mph - N/A   Clear
3:35 AM 62.6 °F - 59.0 °F 88% 29.93 in 10.0 mi NNW 5.8 mph - N/A   Clear
3:55 AM 62.6 °F - 59.0 °F 88% 29.95 in 10.0 mi WNW 5.8 mph - N/A   Clear
4:15 AM 60.8 °F - 59.0 °F 94% 29.97 in 10.0 mi West 5.8 mph - N/A   Clear
4:35 AM 60.8 °F - 59.0 °F 94% 29.99 in 10.0 mi West 5.8 mph - N/A   Clear
4:55 AM 60.8 °F - 57.2 °F 88% 30.01 in 10.0 mi WNW 5.8 mph - N/A   Clear
5:15 AM 60.8 °F - 59.0 °F 94% 30.01 in 10.0 mi WNW 8.1 mph - N/A   Clear
5:35 AM 60.8 °F - 59.0 °F 94% 30.01 in 10.0 mi NW 8.1 mph - N/A   Clear
5:55 AM 60.8 °F - 59.0 °F 94% 30.02 in 10.0 mi NW 8.1 mph - N/A   Clear
6:15 AM 60.8 °F - 57.2 °F 88% 30.03 in 10.0 mi NNW 8.1 mph - N/A   Clear
6:35 AM 60.8 °F - 59.0 °F 94% 30.05 in 10.0 mi North 6.9 mph - N/A   Clear
6:55 AM 60.8 °F - 59.0 °F 94% 30.05 in 10.0 mi North 8.1 mph - N/A   Clear
7:15 AM 60.8 °F - 59.0 °F 94% 30.06 in 10.0 mi NNW 9.2 mph - N/A   Clear
7:35 AM 62.6 °F - 60.8 °F 94% 30.05 in 10.0 mi NNW 9.2 mph - N/A   Clear
7:55 AM 64.4 °F - 60.8 °F 88% 30.05 in 10.0 mi NW 10.4 mph - N/A   Clear
8:15 AM 64.4 °F - 60.8 °F 88% 30.05 in 10.0 mi NNW 9.2 mph - N/A   Clear
8:35 AM 66.2 °F - 60.8 °F 83% 30.06 in 10.0 mi NNW 12.7 mph - N/A   Clear
8:55 AM 68.0 °F - 62.6 °F 83% 30.07 in 10.0 mi North 11.5 mph - N/A   Clear
9:15 AM 69.8 °F - 62.6 °F 78% 30.08 in 10.0 mi North 15.0 mph - N/A   Clear
9:35 AM 69.8 °F - 62.6 °F 78% 30.09 in 10.0 mi North 11.5 mph - N/A   Clear
9:55 AM 71.6 °F - 62.6 °F 73% 30.09 in 10.0 mi North 13.8 mph - N/A   Clear
10:15 AM 73.4 °F - 62.6 °F 69% 30.09 in 10.0 mi North 11.5 mph - N/A   Clear
10:35 AM 73.4 °F - 62.6 °F 69% 30.09 in 10.0 mi North 11.5 mph - N/A   Clear
10:55 AM 75.2 °F - 62.6 °F 65% 30.09 in 10.0 mi North 11.5 mph - N/A   Partly Cloudy
11:15 AM 75.2 °F - 62.6 °F 65% 30.08 in 10.0 mi North 11.5 mph 16.1 mph N/A   Partly Cloudy
11:35 AM 75.2 °F - 62.6 °F 65% 30.09 in 10.0 mi North 9.2 mph - N/A   Clear
11:55 AM 77.0 °F - 62.6 °F 61% 30.09 in 10.0 mi North 10.4 mph 17.3 mph N/A   Clear
12:15 PM 78.8 °F - 62.6 °F 57% 30.08 in 10.0 mi North 9.2 mph - N/A   Clear
12:35 PM 78.8 °F - 62.6 °F 57% 30.08 in 10.0 mi NE 11.5 mph - N/A   Clear
12:55 PM 80.6 °F 81.8 °F 62.6 °F 54% 30.07 in 8.0 mi North 11.5 mph - N/A   Clear
1:15 PM 80.6 °F 81.5 °F 60.8 °F 51% 30.07 in 10.0 mi NNE 10.4 mph - N/A   Clear
1:35 PM 80.6 °F 81.8 °F 62.6 °F 54% 30.06 in 10.0 mi NNE 5.8 mph - N/A   Clear
1:55 PM 80.6 °F 81.8 °F 62.6 °F 54% 30.06 in 8.0 mi NE 10.4 mph 17.3 mph N/A   Partly Cloudy
2:15 PM 82.4 °F 82.9 °F 60.8 °F 48% 30.05 in 10.0 mi ENE 11.5 mph - N/A   Partly Cloudy
2:35 PM 82.4 °F 82.9 °F 60.8 °F 48% 30.05 in 10.0 mi NNE 13.8 mph 18.4 mph N/A   Clear
2:55 PM 82.4 °F 82.9 °F 60.8 °F 48% 30.04 in 10.0 mi NNE 11.5 mph 16.1 mph N/A   Clear
3:15 PM 84.2 °F 84.4 °F 60.8 °F 45% 30.03 in 10.0 mi ENE 10.4 mph - N/A   Clear
3:35 PM 84.2 °F 84.4 °F 60.8 °F 45% 30.03 in 10.0 mi ENE 10.4 mph - N/A   Clear
3:55 PM 84.2 °F 84.4 °F 60.8 °F 45% 30.03 in 10.0 mi East 11.5 mph - N/A   Partly Cloudy
4:15 PM 84.2 °F 83.8 °F 59.0 °F 42% 30.03 in 10.0 mi NE 11.5 mph - N/A   Partly Cloudy
4:35 PM 84.2 °F 83.8 °F 59.0 °F 42% 30.03 in 9.0 mi East 10.4 mph - N/A   Mostly Cloudy
4:55 PM 84.2 °F 83.8 °F 59.0 °F 42% 30.02 in 10.0 mi ENE 12.7 mph 17.3 mph N/A   Partly Cloudy
5:15 PM 84.2 °F 83.8 °F 59.0 °F 42% 30.01 in 10.0 mi ENE 15.0 mph 18.4 mph N/A   Partly Cloudy
5:35 PM 84.2 °F 84.4 °F 60.8 °F 45% 30.01 in 8.0 mi East 15.0 mph 18.4 mph N/A   Scattered Clouds
5:55 PM 84.2 °F 83.8 °F 59.0 °F 42% 30.01 in 10.0 mi East 10.4 mph 16.1 mph N/A   Scattered Clouds
6:15 PM 84.2 °F 83.8 °F 59.0 °F 42% 30.01 in 10.0 mi ENE 11.5 mph 17.3 mph N/A   Partly Cloudy
6:35 PM 84.2 °F 83.8 °F 59.0 °F 42% 30.00 in 10.0 mi ENE 11.5 mph - N/A   Scattered Clouds
6:55 PM 84.2 °F 83.5 °F 57.2 °F 40% 30.01 in 10.0 mi ENE 13.8 mph - N/A   Partly Cloudy
7:15 PM 82.4 °F 82.0 °F 57.2 °F 42% 30.01 in 10.0 mi ENE 8.1 mph 16.1 mph N/A   Clear
7:35 PM 82.4 °F 82.5 °F 59.0 °F 45% 30.01 in 10.0 mi ENE 9.2 mph - N/A   Clear
7:55 PM 80.6 °F 81.5 °F 60.8 °F 51% 30.01 in 10.0 mi East 8.1 mph - N/A   Clear
8:15 PM 78.8 °F - 60.8 °F 54% 30.01 in 10.0 mi East 9.2 mph - N/A   Clear
8:35 PM 78.8 °F - 60.8 °F 54% 30.02 in 10.0 mi East 5.8 mph - N/A   Clear
8:55 PM 75.2 °F - 62.6 °F 65% 30.03 in 10.0 mi ESE 4.6 mph - N/A   Clear
9:15 PM 75.2 °F - 62.6 °F 65% 30.04 in 10.0 mi East 4.6 mph - N/A   Clear
9:35 PM 75.2 °F - 62.6 °F 65% 30.04 in 10.0 mi ESE 4.6 mph - N/A   Clear
9:55 PM 71.6 °F - 64.4 °F 78% 30.04 in 10.0 mi SSE 4.6 mph - N/A   Clear
10:15 PM 71.6 °F - 64.4 °F 78% 30.04 in 10.0 mi SSE 5.8 mph - N/A   Clear
10:35 PM 71.6 °F - 62.6 °F 73% 30.04 in 10.0 mi SE 4.6 mph - N/A   Clear
10:55 PM 71.6 °F - 62.6 °F 73% 30.04 in 10.0 mi SE 4.6 mph - N/A   Clear
11:15 PM 69.8 °F - 62.6 °F 78% 30.05 in 10.0 mi SSE 3.5 mph - N/A   Clear
11:35 PM 69.8 °F - 64.4 °F 83% 30.06 in 10.0 mi South 5.8 mph - N/A   Clear
11:55 PM 69.8 °F - 64.4 °F 83% 30.06 in 10.0 mi South 8.1 mph - N/A   Clear